DL8NDG-13 Weather Reports


time (UTC)temp
C
wind
direction
speed
KPH
gust
KPH
rain 1hr
cm
rain 24hr
cm
rain mn
cm
humidity
%
barometer
mb
20260508191545 12 23 0.0 0.0 0.00 0.00 0.00 75 1016.9
20260508190043 12 22 0.0 0.0 0.00 0.00 0.00 74 1016.6
20260508184544 13 24 0.0 0.0 0.00 0.00 0.00 71 1016.4
20260508183059 13 22 0.0 0.0 0.00 0.00 0.00 69 1016.3
20260508181551 14 24 0.0 0.0 0.00 0.00 0.00 66 1016.2
20260508180042 15 24 0.0 0.0 0.00 0.00 0.00 64 1015.9
20260508174541 15 23 0.0 0.0 0.00 0.00 0.00 62 1015.9
20260508173041 16 26 0.0 0.0 0.00 0.00 0.00 61 1015.8
20260508171547 16 23 0.0 0.0 0.00 0.00 0.00 58 1015.8
20260508170039 16 23 0.0 0.0 0.00 0.00 0.00 59 1015.8
20260508164539 17 29 0.0 0.0 0.00 0.00 0.00 57 1015.8
20260508163045 17 29 0.0 0.0 0.00 0.00 0.00 57 1015.9
20260508161540 16 5 0.0 0.0 0.00 0.00 0.00 57 1015.8
20260508160039 16 5 0.0 0.0 0.00 0.00 0.00 59 1015.7
20260508154536 16 360 0.0 0.0 0.00 0.00 0.00 55 1015.8
20260508153035 17 11 0.0 0.0 0.00 0.00 0.00 54 1015.8
20260508151634 17 13 0.0 0.0 0.00 0.00 0.00 53 1015.8
20260508150039 16 15 0.0 0.0 0.00 0.00 0.00 55 1015.9
20260508144541 16 15 0.0 0.0 0.00 0.00 0.00 56 1016.0
20260508143037 17 15 0.0 0.0 0.00 0.00 0.00 57 1016.1
20260508141531 17 5 0.0 0.0 0.00 0.00 0.00 52 1016.2
20260508140037 16 294 0.0 0.0 0.00 0.00 0.00 56 1016.4
20260508134530 17 5 0.0 0.0 0.00 0.00 0.00 56 1016.5
20260508133026 16 11 0.0 0.0 0.00 0.00 0.00 58 1016.7
20260508131525 16 360 0.0 0.0 0.00 0.00 0.00 56 1016.6
20260508130027 16 11 0.0 0.0 0.00 0.00 0.00 59 1016.6
20260508124525 16 13 0.0 0.0 0.00 0.00 0.00 58 1016.9
20260508123025 17 360 0.0 0.0 0.00 0.00 0.00 59 1016.9
20260508121524 15 276 0.0 0.0 0.00 0.00 0.00 60 1017.0
20260508120023 15 262 0.0 0.0 0.00 0.00 0.00 63 1016.9
20260508114530 15 360 0.0 0.0 0.00 0.00 0.00 60 1017.0
20260508113027 16 27 0.0 0.0 0.00 0.00 0.00 59 1016.8
20260508111515 16 34 0.0 0.0 0.00 0.00 0.00 63 1017.1
20260508110013 15 32 0.0 0.0 0.00 0.00 0.00 66 1017.0
20260508104512 15 30 0.0 0.0 0.00 0.00 0.00 64 1017.2
20260508103009 15 43 1.6 14.5 0.00 0.00 0.00 63 1017.2
20260508101507 15 38 0.0 6.4 0.00 0.00 0.00 63 1017.3
20260508100002 15 28 3.2 8.0 0.00 0.00 0.00 69 1017.4
20260508094558 13 24 1.6 9.7 0.00 0.10 0.00 74 1017.5
20260508093056 12 360 0.0 0.0 0.00 0.10 0.00 79 1017.6
20260508091552 12 360 0.0 0.0 0.00 0.10 0.00 77 1017.7
20260508090053 11 360 0.0 0.0 0.00 0.10 0.00 78 1017.7
20260508084550 11 360 0.0 0.0 0.00 0.15 0.00 79 1017.6
20260508083047 11 360 0.0 0.0 0.00 0.15 0.00 81 1017.7
20260508081544 11 273 0.0 0.0 0.00 0.15 0.00 82 1017.9
20260508080039 10 273 0.0 0.0 0.00 0.15 0.00 84 1017.9
20260508074537 10 273 0.0 0.0 0.00 0.20 0.00 84 1017.9
20260508073036 10 196 0.0 0.0 0.00 0.20 0.00 86 1017.9
20260508071533 10 273 0.0 0.0 0.00 0.20 0.00 87 1017.7
20260508070028 9 267 0.0 0.0 0.00 0.20 0.00 87 1017.6
20260508064547 9 267 0.0 0.0 0.00 0.36 0.00 86 1017.5
20260508063027 9 267 0.0 0.0 0.00 0.36 0.00 85 1017.4
20260508061520 8 269 0.0 0.0 0.00 0.36 0.00 85 1017.1
20260508060018 8 262 0.0 0.0 0.00 0.36 0.00 84 1017.0
20260508054526 8 173 0.0 0.0 0.00 0.36 0.00 83 1017.0
20260508053014 8 155 0.0 0.0 0.00 0.36 0.00 83 1016.8
20260508051522 8 155 0.0 0.0 0.00 0.36 0.00 82 1016.8
20260508050017 8 156 0.0 0.0 0.00 0.36 0.00 82 1016.5
20260508044507 8 155 0.0 0.0 0.00 0.36 0.00 83 1016.6
20260508043005 8 155 0.0 0.0 0.00 0.36 0.00 83 1016.5
20260508041502 8 128 0.0 0.0 0.00 0.36 0.00 83 1016.4
20260508040107 8 148 0.0 0.0 0.00 0.36 0.00 83 1016.4
20260508034600 8 141 0.0 0.0 0.00 0.36 0.00 83 1016.1
20260508033059 8 142 0.0 0.0 0.00 0.36 0.00 83 1016.0
20260508031606 8 229 0.0 0.0 0.00 0.36 0.00 83 1016.0
20260508030105 8 165 0.0 0.0 0.00 0.36 0.00 83 1015.9
20260508024557 7 148 0.0 0.0 0.00 0.36 0.00 84 1016.0
20260508023056 7 128 0.0 0.0 0.00 0.36 0.00 85 1015.9
20260508021603 7 228 0.0 0.0 0.00 0.36 0.00 85 1016.0
20260508020154 7 228 0.0 0.0 0.00 0.36 0.00 86 1016.0
20260508014552 7 167 0.0 0.0 0.00 0.36 0.00 86 1015.9
20260508013050 7 165 0.0 0.0 0.00 0.36 0.00 86 1015.9
20260508011551 7 165 0.0 0.0 0.00 0.36 0.00 86 1016.0
20260508010146 8 165 0.0 0.0 0.00 0.36 0.00 86 1016.0
20260508004542 8 148 0.0 0.0 0.00 0.41 0.00 86 1016.2
20260508003041 8 142 0.0 0.0 0.00 0.41 0.00 86 1016.3
20260508001540 8 252 0.0 0.0 0.00 0.41 0.00 86 1016.3
20260508000052 8 229 0.0 0.0 0.00 0.41 0.00 86 1016.3
20260507234544 8 165 0.0 0.0 0.00 0.43 0.00 86 1016.3
20260507233037 8 165 0.0 0.0 0.00 0.43 0.00 86 1016.3
20260507231542 8 148 0.0 0.0 0.00 0.43 0.00 86 1016.4
20260507230034 8 142 0.0 0.0 0.00 0.43 0.00 87 1016.4
20260507224533 8 230 0.0 0.0 0.00 0.46 0.00 87 1016.4
20260507223032 8 229 0.0 0.0 0.00 0.46 0.00 87 1016.3
20260507221531 8 165 0.0 0.0 0.00 0.46 0.00 87 1016.3
20260507220029 8 148 0.0 0.0 0.00 0.46 0.00 87 1016.3
20260507214530 9 148 0.0 0.0 0.00 0.46 0.46 87 1016.1
20260507213026 9 149 0.0 0.0 0.00 0.46 0.46 87 1016.0
20260507211533 9 252 0.0 0.0 0.00 0.46 0.46 87 1016.0
20260507210024 10 229 0.0 0.0 0.00 0.46 0.46 87 1016.0
20260507204524 10 165 0.0 0.0 0.00 0.51 0.46 87 1016.0
20260507203021 10 165 0.0 0.0 0.00 0.51 0.46 87 1015.9
20260507201519 10 166 0.0 0.0 0.00 0.51 0.46 87 1015.7
20260507200017 10 149 0.0 0.0 0.00 0.51 0.46 87 1015.6
20260507194516 10 252 0.0 0.0 0.00 0.51 0.46 87 1015.5
20260507193020 10 142 0.0 0.0 0.00 0.51 0.46 86 1015.5